Radiation Dose at Monitoring Post of Fukushima Daini Nuclear Power Station
Date,Time,MP-1(microSv/h),MP-2(microSv/h),MP-3(microSv/h),MP-4(microSv/h),MP-5(microSv/h),MP-6(microSv/h),MP-7(microSv/h),Wind Direction,Wind Velocity(m/s),Rain
2021/09/10,00:00,0.157,0.143,0.224,0.218,0.227,0.122,0.078,north-northwest,2.4,Yes
2021/09/10,00:10,0.157,0.145,0.226,0.220,0.225,0.121,0.079,north-northwest,1.7,No
2021/09/10,00:20,0.158,0.143,0.226,0.220,0.230,0.122,0.079,north-northwest,0.6,No
2021/09/10,00:30,0.157,0.144,0.225,0.218,0.228,0.123,0.078,north,1.2,No
2021/09/10,00:40,0.158,0.144,0.228,0.221,0.226,0.122,0.079,-,CALM,No
2021/09/10,00:50,0.157,0.144,0.226,0.219,0.230,0.123,0.079,north-northwest,1.3,No
2021/09/10,01:00,0.157,0.145,0.226,0.219,0.227,0.123,0.080,north-northwest,1.5,No
2021/09/10,01:10,0.159,0.145,0.227,0.220,0.226,0.121,0.079,north-northwest,2.6,No
2021/09/10,01:20,0.158,0.144,0.225,0.219,0.229,0.124,0.079,north,3.5,Yes
2021/09/10,01:30,0.157,0.144,0.227,0.219,0.228,0.123,0.079,north,3.4,No
2021/09/10,01:40,0.158,0.144,0.228,0.221,0.227,0.123,0.079,north,3.6,No
2021/09/10,01:50,0.158,0.144,0.226,0.218,0.230,0.123,0.079,north,3.3,No
2021/09/10,02:00,0.156,0.146,0.227,0.221,0.227,0.123,0.080,north,3.6,No
2021/09/10,02:10,0.158,0.144,0.227,0.222,0.227,0.123,0.080,north,4.1,No
2021/09/10,02:20,0.157,0.144,0.226,0.219,0.229,0.124,0.080,north,4.4,No
2021/09/10,02:30,0.157,0.146,0.227,0.221,0.227,0.122,0.081,north,5.2,No
2021/09/10,02:40,0.158,0.144,0.224,0.220,0.230,0.123,0.079,north-northwest,5.8,No
2021/09/10,02:50,0.156,0.145,0.227,0.221,0.228,0.123,0.079,north-northwest,6.6,No
2021/09/10,03:00,0.157,0.145,0.225,0.221,0.227,0.123,0.080,north-northwest,7.0,No
2021/09/10,03:10,0.159,0.145,0.227,0.218,0.229,0.123,0.079,north-northwest,7.1,No
2021/09/10,03:20,0.157,0.144,0.227,0.221,0.227,0.122,0.079,north-northwest,6.5,No
2021/09/10,03:30,0.159,0.145,0.226,0.219,0.228,0.123,0.079,north-northwest,6.6,No
2021/09/10,03:40,0.157,0.145,0.228,0.219,0.229,0.124,0.080,north-northwest,5.8,No
2021/09/10,03:50,0.157,0.144,0.225,0.220,0.226,0.123,0.079,north-northwest,5.8,No
2021/09/10,04:00,0.158,0.144,0.227,0.219,0.229,0.122,0.079,north-northwest,5.4,No
2021/09/10,04:10,0.156,0.143,0.226,0.220,0.226,0.123,0.079,north-northwest,4.8,No
2021/09/10,04:20,0.158,0.144,0.226,0.219,0.227,0.121,0.079,north-northwest,4.8,No
2021/09/10,04:30,0.157,0.143,0.227,0.220,0.228,0.123,0.080,north-northwest,4.7,No
2021/09/10,04:40,0.157,0.144,0.226,0.219,0.226,0.122,0.079,north-northwest,4.3,No
2021/09/10,04:50,0.158,0.144,0.227,0.219,0.228,0.122,0.079,north-northwest,4.8,No
2021/09/10,05:00,0.157,0.144,0.226,0.220,0.225,0.122,0.079,north-northwest,4.4,No
2021/09/10,05:10,0.158,0.145,0.225,0.218,0.228,0.122,0.078,north-northwest,4.0,No
2021/09/10,05:20,0.157,0.144,0.225,0.220,0.226,0.122,0.079,north-northwest,4.5,No
2021/09/10,05:30,0.156,0.145,0.226,0.218,0.226,0.122,0.078,north-northwest,3.7,No
2021/09/10,05:40,0.157,0.144,0.227,0.220,0.228,0.122,0.078,north-northwest,3.6,No
2021/09/10,05:50,0.156,0.144,0.225,0.218,0.226,0.123,0.078,north-northwest,4.7,No
2021/09/10,06:00,0.157,0.142,0.226,0.219,0.228,0.122,0.079,north-northwest,6.0,No
2021/09/10,06:10,0.157,0.144,0.226,0.219,0.228,0.123,0.080,north-northwest,6.9,No
2021/09/10,06:20,0.156,0.143,0.226,0.219,0.228,0.123,0.078,north-northwest,7.0,No
2021/09/10,06:30,0.157,0.143,0.224,0.220,0.227,0.122,0.079,northwest,6.6,No
2021/09/10,06:40,0.157,0.144,0.227,0.217,0.224,0.122,0.079,north-northwest,5.6,No
2021/09/10,06:50,0.158,0.144,0.225,0.220,0.228,0.122,0.078,north-northwest,5.1,No
2021/09/10,07:00,0.157,0.144,0.225,0.218,0.226,0.123,0.078,north-northwest,4.7,No
2021/09/10,07:10,0.156,0.142,0.226,0.216,0.225,0.122,0.078,north-northwest,5.0,No
2021/09/10,07:20,0.158,0.144,0.223,0.220,0.227,0.122,0.078,north-northwest,3.9,No
2021/09/10,07:30,0.157,0.145,0.223,0.218,0.225,0.122,0.077,north-northwest,4.1,No
2021/09/10,07:40,0.157,0.142,0.221,0.217,0.225,0.122,0.077,north-northwest,3.6,No
2021/09/10,07:50,0.158,0.144,0.222,0.216,0.228,0.122,0.077,north-northwest,3.7,No
2021/09/10,08:00,0.157,0.143,0.222,0.216,0.225,0.122,0.077,north-northwest,3.1,No
2021/09/10,08:10,0.156,0.144,0.223,0.215,0.224,0.122,0.078,north-northwest,3.6,No
2021/09/10,08:20,0.158,0.144,0.223,0.217,0.226,0.123,0.078,north,3.7,No
2021/09/10,08:30,0.156,0.144,0.224,0.217,0.230,0.122,0.078,north,4.3,No
2021/09/10,08:40,0.155,0.143,0.224,0.216,0.227,0.121,0.078,north,4.7,No
2021/09/10,08:50,0.155,0.144,0.223,0.217,0.226,0.121,0.078,north,5.7,No
2021/09/10,09:00,0.155,0.143,0.223,0.217,0.224,0.122,0.078,north,5.4,No
2021/09/10,09:10,0.157,0.142,0.223,0.216,0.225,0.122,0.078,north,7.1,No
2021/09/10,09:20,0.156,0.142,0.224,0.216,0.225,0.122,0.077,north,6.4,No
2021/09/10,09:30,0.156,0.143,0.226,0.216,0.225,0.121,0.078,north,7.5,No
2021/09/10,09:40,0.155,0.142,0.225,0.217,0.226,0.122,0.078,north,6.5,No
2021/09/10,09:50,0.155,0.143,0.225,0.218,0.226,0.121,0.077,north,7.6,No
2021/09/10,10:00,0.154,0.144,0.225,0.218,0.226,0.122,0.078,north,8.1,No
2021/09/10,10:10,0.154,0.143,0.225,0.218,0.227,0.122,0.077,north-northeast,8.5,No
2021/09/10,10:20,0.154,0.142,0.224,0.218,0.227,0.121,0.077,north-northeast,9.3,No
2021/09/10,10:30,0.154,0.143,0.225,0.218,0.226,0.122,0.078,north-northeast,9.5,No
2021/09/10,10:40,0.154,0.142,0.226,0.219,0.227,0.120,0.078,north-northeast,9.2,No
2021/09/10,10:50,0.154,0.142,0.225,0.219,0.226,0.122,0.077,north,6.7,No
2021/09/10,11:00,0.155,0.142,0.225,0.216,0.225,0.122,0.077,north-northeast,7.5,No
2021/09/10,11:10,0.154,0.142,0.224,0.217,0.227,0.121,0.078,north-northeast,5.8,No
2021/09/10,11:20,0.155,0.142,0.224,0.217,0.227,0.122,0.077,north-northeast,6.5,No
2021/09/10,11:30,0.155,0.142,0.225,0.220,0.226,0.121,0.078,northeast,6.6,No
2021/09/10,11:40,0.156,0.142,0.224,0.217,0.227,0.122,0.078,northeast,7.7,No
2021/09/10,11:50,0.155,0.143,0.225,0.217,0.226,0.122,0.078,northeast,6.0,No
2021/09/10,12:00,0.157,0.143,0.224,0.217,0.227,0.122,0.078,north-northeast,5.2,No
2021/09/10,12:10,0.158,0.142,0.223,0.219,0.227,0.122,0.078,northeast,4.5,No
2021/09/10,12:20,0.156,0.143,0.225,0.219,0.227,0.122,0.078,northeast,5.3,No
2021/09/10,12:30,0.157,0.143,0.225,0.218,0.227,0.122,0.078,northeast,5.2,No
2021/09/10,12:40,0.155,0.143,0.225,0.218,0.226,0.122,0.078,northeast,6.2,No
2021/09/10,12:50,0.156,0.143,0.226,0.217,0.226,0.121,0.078,north-northeast,6.4,No
2021/09/10,13:00,0.156,0.143,0.225,0.218,0.227,0.122,0.077,north-northeast,5.6,No
2021/09/10,13:10,0.156,0.143,0.226,0.218,0.227,0.122,0.078,north-northeast,5.3,No
2021/09/10,13:20,0.155,0.143,0.226,0.218,0.227,0.122,0.077,northeast,5.4,No
2021/09/10,13:30,0.156,0.144,0.225,0.217,0.227,0.122,0.078,north-northeast,4.5,No
2021/09/10,13:40,0.155,0.143,0.227,0.219,0.228,0.122,0.078,northeast,4.9,No
2021/09/10,13:50,0.154,0.143,0.226,0.218,0.227,0.121,0.078,north-northeast,3.9,No
2021/09/10,14:00,0.155,0.144,0.226,0.218,0.228,0.122,0.078,northeast,5.0,No
2021/09/10,14:10,0.155,0.143,0.225,0.219,0.228,0.123,0.078,northeast,4.2,No
2021/09/10,14:20,0.156,0.143,0.226,0.219,0.228,0.122,0.078,northeast,4.4,No
2021/09/10,14:30,0.156,0.143,0.225,0.218,0.227,0.122,0.077,northeast,5.2,No
2021/09/10,14:40,0.156,0.143,0.226,0.220,0.228,0.123,0.078,northeast,4.6,No
2021/09/10,14:50,0.155,0.142,0.225,0.218,0.227,0.122,0.078,north-northeast,4.5,No
2021/09/10,15:00,0.155,0.143,0.225,0.218,0.227,0.122,0.077,northeast,3.3,No
2021/09/10,15:10,0.157,0.143,0.224,0.218,0.227,0.122,0.078,northeast,3.0,No
2021/09/10,15:20,0.155,0.142,0.227,0.218,0.227,0.121,0.078,northeast,2.8,No
2021/09/10,15:30,0.156,0.144,0.228,0.220,0.226,0.122,0.078,northeast,3.2,No
2021/09/10,15:40,0.158,0.145,0.228,0.220,0.226,0.121,0.077,northeast,2.2,No
2021/09/10,15:50,0.158,0.144,0.226,0.218,0.228,0.121,0.077,northeast,2.4,No
2021/09/10,16:00,0.158,0.143,0.228,0.219,0.228,0.122,0.078,east-northeast,2.6,No
2021/09/10,16:10,0.156,0.145,0.228,0.222,0.226,0.121,0.077,northeast,3.0,No
2021/09/10,16:20,0.155,0.144,0.225,0.220,0.226,0.121,0.078,northeast,2.8,Yes
2021/09/10,16:30,0.159,0.143,0.229,0.218,0.226,0.121,0.078,east-northeast,2.4,Yes
2021/09/10,16:40,0.157,0.144,0.228,0.221,0.226,0.123,0.078,northeast,1.6,No
2021/09/10,16:50,0.156,0.145,0.225,0.220,0.225,0.122,0.077,east-northeast,1.8,No
2021/09/10,17:00,0.157,0.143,0.227,0.218,0.226,0.121,0.078,north-northeast,1.8,No
2021/09/10,17:10,0.158,0.144,0.228,0.222,0.225,0.122,0.078,east-northeast,1.5,No
2021/09/10,17:20,0.156,0.143,0.225,0.221,0.225,0.122,0.077,northeast,1.6,No
2021/09/10,17:30,0.157,0.143,0.227,0.218,0.229,0.121,0.078,northeast,1.2,No
2021/09/10,17:40,0.158,0.145,0.226,0.221,0.228,0.121,0.078,-,CALM,No
2021/09/10,17:50,0.156,0.143,0.226,0.220,0.226,0.122,0.078,-,CALM,No
2021/09/10,18:00,0.157,0.144,0.228,0.219,0.230,0.121,0.078,-,CALM,No
2021/09/10,18:10,0.157,0.144,0.226,0.220,0.228,0.122,0.078,south,0.6,No
2021/09/10,18:20,0.156,0.143,0.228,0.220,0.227,0.122,0.078,-,CALM,No
2021/09/10,18:30,0.157,0.145,0.227,0.221,0.230,0.121,0.078,-,CALM,No
2021/09/10,18:40,0.157,0.143,0.227,0.220,0.226,0.123,0.077,southeast,0.7,No
2021/09/10,18:50,0.157,0.143,0.228,0.220,0.227,0.123,0.077,-,CALM,No
2021/09/10,19:00,0.158,0.143,0.226,0.221,0.230,0.122,0.078,-,CALM,No
2021/09/10,19:10,0.157,0.143,0.228,0.219,0.227,0.122,0.077,-,CALM,No
2021/09/10,19:20,0.157,0.144,0.227,0.221,0.227,0.121,0.078,-,CALM,No
2021/09/10,19:30,0.157,0.144,0.227,0.220,0.230,0.122,0.077,-,CALM,No
2021/09/10,19:40,0.155,0.144,0.228,0.219,0.226,0.123,0.077,-,CALM,No
2021/09/10,19:50,0.158,0.144,0.226,0.221,0.228,0.122,0.078,south,0.6,No
2021/09/10,20:00,0.157,0.143,0.230,0.220,0.228,0.122,0.078,-,CALM,No
2021/09/10,20:10,0.156,0.145,0.227,0.221,0.226,0.122,0.078,-,CALM,No
2021/09/10,20:20,0.157,0.143,0.226,0.221,0.230,0.121,0.078,-,CALM,Yes
2021/09/10,20:30,0.157,0.144,0.228,0.219,0.228,0.123,0.078,-,CALM,No
2021/09/10,20:40,0.157,0.144,0.227,0.221,0.227,0.121,0.079,-,CALM,No
2021/09/10,20:50,0.158,0.143,0.229,0.219,0.229,0.122,0.078,-,CALM,No
2021/09/10,21:00,0.156,0.144,0.226,0.220,0.227,0.123,0.078,south-southwest,1.1,No
2021/09/10,21:10,0.159,0.144,0.227,0.220,0.227,0.121,0.078,south,0.7,No
2021/09/10,21:20,0.156,0.144,0.228,0.220,0.229,0.122,0.077,south-southwest,0.7,No
2021/09/10,21:30,0.156,0.143,0.227,0.221,0.226,0.121,0.078,-,CALM,No
2021/09/10,21:40,0.159,0.144,0.228,0.218,0.228,0.122,0.078,-,CALM,No
2021/09/10,21:50,0.156,0.143,0.227,0.221,0.228,0.123,0.079,-,CALM,No
2021/09/10,22:00,0.158,0.144,0.227,0.219,0.227,0.122,0.078,-,CALM,No
2021/09/10,22:10,0.157,0.145,0.227,0.220,0.229,0.123,0.078,east,0.7,No
2021/09/10,22:20,0.156,0.144,0.228,0.221,0.227,0.123,0.078,-,CALM,No
2021/09/10,22:30,0.158,0.145,0.228,0.219,0.228,0.122,0.077,-,CALM,No
2021/09/10,22:40,0.157,0.143,0.227,0.221,0.228,0.123,0.078,-,CALM,No
2021/09/10,22:50,0.158,0.144,0.229,0.219,0.226,0.122,0.079,-,CALM,No
2021/09/10,23:00,0.157,0.144,0.227,0.220,0.230,0.122,0.078,-,CALM,No
2021/09/10,23:10,0.156,0.144,0.227,0.221,0.229,0.122,0.078,-,CALM,No
2021/09/10,23:20,0.158,0.144,0.229,0.219,0.225,0.122,0.077,-,CALM,No
2021/09/10,23:30,0.157,0.144,0.226,0.220,0.230,0.122,0.079,-,CALM,No
2021/09/10,23:40,0.157,0.145,0.228,0.220,0.227,0.122,0.078,-,CALM,No
2021/09/10,23:50,0.157,0.144,0.228,0.220,0.228,0.122,0.078,-,CALM,No
